[Iaude] MPEC R67: 2023 RV1 [a=1.32,e=0.60,i=1.3,H=26.0]

mpec at marsden.cfa.harvard.edu mpec at marsden.cfa.harvard.edu
Fri Sep 8 20:11:03 EDT 2023


M.P.E.C. 2023-R67                             Issued 2023 September 9, 00:09 UT

     The Minor Planet Electronic Circulars contain information on unusual
         minor planets, routine data on comets and natural satellites,
         and occasional editorial announcements.  They are published
    on behalf of Division F of the International Astronomical Union by the
          Minor Planet Center, Smithsonian Astrophysical Observatory,
                          Cambridge, MA 02138, U.S.A.
			  
             Prepared using the Tamkin Foundation Computer Network

                              MPC at CFA.HARVARD.EDU
            URL https://www.minorplanetcenter.net/    ISSN 1523-6714

                                    2023 RV1                                    


Observations:
     K23R01V* C2023 09 07.24109421 08 26.749+24 30 55.01         20.0 GVER067U68
     K23R01V  C2023 09 07.24502021 08 33.765+24 28 14.28         20.0 GVER067U68
     K23R01V  C2023 09 07.26362721 09 06.711+24 15 32.89         19.7 GVER067U68
     K23R01V  C2023 09 07.26755821 09 13.595+24 12 52.82         19.7 GVER067U68
     K23R01V 1C2023 09 07.85856 21 24 06.68 +18 32 58.6          20.7 VXER067033
     K23R01V 1C2023 09 07.85922 21 24 07.45 +18 32 39.2          20.7 VXER067033
     K23R01V 5C2023 09 08.86142 21 39 22.35 +12 14 33.0          20.6 GXER067033
     K23R01V 5C2023 09 08.86427 21 39 24.15 +12 13 43.3          20.3 GXER067033
     K23R01V 5C2023 09 08.86712 21 39 25.94 +12 12 53.8          20.9 GXER067033
     K23R01V 5C2023 09 08.92044 21 39 59.19 +11 57 31.4          20.4 GXER067033
     K23R01V 5C2023 09 08.92275 21 40 00.63 +11 56 51.6          20.5 GXER067033
     K23R01V 5C2023 09 08.92501 21 40 02.04 +11 56 12.7          20.4 GXER067033
     K23R01V 1C2023 09 08.94918 21 40 16.76 +11 49 22.0          20.3 VXER067033
     K23R01V 1C2023 09 08.95010 21 40 17.31 +11 49 06.5          20.1 VXER067033
     K23R01V 1C2023 09 08.95102 21 40 17.87 +11 48 51.3          20.3 VXER067033
     K23R01V 5C2023 09 08.95894 21 40 22.70 +11 46 37.4          20.9 GXER067033
     K23R01V 5C2023 09 08.96179 21 40 24.41 +11 45 49.4          20.2 GXER067033
     K23R01V 5C2023 09 08.96464 21 40 26.15 +11 45 01.2          20.6 GXER067033
     K23R01V KB2023 09 08.96750421 40 29.33 +11 44 32.4          19.8 GVER067I93
     K23R01V bC2023 09 08.97199421 40 29.86 +11 43 12.9          20.2 GVER067L01
     K23R01V KB2023 09 08.97264821 40 32.39 +11 43 05.9          20.0 GVER067I93
     K23R01V bC2023 09 08.97347321 40 30.72 +11 42 48.0          20.0 GVER067L01
     K23R01V bC2023 09 08.97495421 40 31.58 +11 42 22.6          20.0 GVER067L01
     K23R01V bC2023 09 08.97643721 40 32.50 +11 41 58.4          20.2 GVER067L01
     K23R01V KC2023 09 08.97685821 40 35.314+11 41 36.74         20.2 GVER067J95
     K23R01V KB2023 09 08.97771521 40 35.33 +11 41 40.8          20.1 GVER067I93
     K23R01V bC2023 09 08.97792021 40 33.43 +11 41 32.8          20.0 GVER067L01
     K23R01V KC2023 09 08.98624221 40 40.954+11 39 01.19         20.8 GVER067J95

Observer details:
033 Karl Schwarzschild Observatory, Tautenburg.  Observers S. Melnikov, C.
    Hoegner, F. Ludwig, M. Hartmann, B. Stecklum, C. Demeautis.  Measurers B.
    Stecklum, C. Demeautis.  1.34-m f/3 Schmidt + CCD.
I93 St Pardon de Conques.  Observer F. Losse.  0.40-m f/3.7 reflector + CMO.
J95 Great Shefford.  Observer P. Birtwhistle.  0.41-m f/6.3 Schmidt-Cassegrain
    + CCD.
L01 Visnjan Observatory, Tican.  Observer K. Korlevic.  1.0-m f/2.9 reflector
    + CCD.
U68 JPL SynTrack Robotic Telescope, Auberry.  Observers N. Saini, C. Zhai, R.
    Trahan, M. Zhan, M. Shao.  0.28-m Reflector + CCD.

Orbital elements:
2023 RV1                                                 Earth MOID = 0.0072 AU
Epoch 2023 Sept. 13.0 TT = JDT 2460200.5                Veres                   
M  40.24642              (2000.0)            P               Q                  
n   0.64956132     Peri.  302.40630     -0.55217343     +0.83346789             
a   1.3204520      Node   294.06360     -0.75704887     -0.51172013             
e   0.5990401      Incl.    1.31001     -0.34925851     -0.20850368             
P   1.52           H   26.04          G   0.15           U   9                  
Residuals in seconds of arc
230907 U68  0.2-  0.3-    230908 033  0.3+  0.5-    230908 I93  0.3+  0.2-
230907 U68  0.1-  0.5+    230908 033  0.6+  0.7-    230908 L01  0.7-  0.0
230907 U68  0.3+  0.2+    230908 033  0.1+  0.4-    230908 L01  1.1-  0.5-
230907 U68  0.2+  0.0     230908 033  0.0   0.4-    230908 L01  0.6-  0.1+
230907 033  0.3-  0.4-    230908 033  0.0   0.0     230908 J95  0.1-  0.3-
230907 033  0.1-  0.7-    230908 033  0.3+  0.1-    230908 I93  0.6-  0.5-
230908 033  0.3-  0.7-    230908 033  0.1+  0.1-    230908 L01  0.0   0.7-
230908 033  0.4-  0.5-    230908 033  0.3+  0.4-    230908 J95  0.3+  0.6+
230908 033  0.6-  0.1-    230908 I93  0.2+  0.1+
230908 033  0.0   0.2-    230908 L01  0.3-  0.1+

Ephemeris:
2023 RV1                 a,e,i = 1.32, 0.60, 1                   q = 0.5294
Date    TT    R. A. (2000) Decl.     Delta      r    Elong.  Phase     V
2023 08 10    10 26 37.8 +10 31 24   0.3173  0.7181    17.7   154.5    32.2
...
2023 08 25    10 39 35.2 +14 13 58   0.1279  0.8843     7.2   171.7
...
2023 09 02    11 20 41.8 +29 38 36   0.03967 0.9728    23.3   155.8    28.7
...
2023 09 08    21 26 47.3 +17 29 47   0.03571 1.0377   146.4    32.5    20.3
2023 09 09    21 40 51.5 +11 37 29   0.04582 1.0483   152.4    26.4    20.6
2023 09 10    21 49 29.1 +07 52 36   0.05636 1.0589   155.8    23.0    21.0
...
2023 09 16    22 09 09.3 -00 40 46   0.1228  1.1212   159.0    18.7    22.7
...
2023 09 24    22 17 51.7 -03 40 57   0.2160  1.2011   153.9    21.6    24.2
...
2023 10 09    22 28 56.8 -05 07 17   0.4045  1.3404   141.7    27.5    25.9

M. P. C. Staff               (C) Copyright 2023 MPC           M.P.E.C. 2023-R67





More information about the Iaude mailing list